Location: Asheville, NC
(35.6000°N, 82.5500°W)
Time: 07:24:36
(UTC-04:00)

Vanguard 1 - Pass Details

Date: 11 February 2018
Orbit: 650 x 3833 km, 34.3° (Epoch: 21 May)

Event Time Altitude Azimuth Distance (km) Brightness Sun altitude
Rises 20:17:31 0° 269° (W) 3,400 14.2 -26.8°
Reaches altitude 10° 20:20:15 10° 268° (W) 2,252 12.9 -27.3°
Enters shadow 20:24:13 57° 251° (WSW) 774 9.7 -28.1°
